Location: *
(52.2090°N, 4.1550°W)
Time: 22:31:13
(UTC+00:00)

Cosmos 1328 Rocket - Pass Details

Date: 19 July 2019
Orbit: 600 x 628 km, 82.5° (Epoch: 20 August)

Event Time Altitude Azimuth Distance (km) Brightness Sun altitude
Rises 21:14:52 0° 346° (NNW) 2,906 8.2 -6.3°
Reaches altitude 10° 21:17:09 10° 342° (NNW) 1,991 7.4 -6.6°
Maximum altitude 21:21:27 57° 265° (W) 727 4.2 -7.0°
Drops below altitude 10° 21:25:42 10° 187° (S) 1,958 5.7 -7.5°
Enters shadow 21:27:42 - 183° (S) 2,766 6.5 -7.7°
